This demonstration page uses our WeatherBlox Daily Observations layout. Learn more.

Left ArrowRight Arrow

40.92945, -100.16068

Hourly Observations for October 22, 2018

Temp ( °F °C ) Dew Point ( °F °C ) Humidity (%) Winds ( mph kmh ) Pressure ( in mb ) Visibility ( mi km ) Precip ( " mm )
12:15 am 00:15 Clear 47 8.5 38 3.5 71 71 NNE 6 9 30.06 1018 10 16.0934 0 0
12:35 am 00:35 Clear 47 8.5 39 3.9 73 73 NE 7 11 30.06 1018 10 16.0934 0 0
12:55 am 00:55 Clear 48 9 40 4.3 73 73 NE 7 11 30.06 1018 10 16.0934 0 0
1:15 am 01:15 Clear 48 9.1 40 4.3 72 72 NE 5 7 30.06 1018 10 16.0934 0 0
1:35 am 01:35 Clear 46 7.7 39 3.7 76 76 Calm 30.06 1018 10 16.0934 0 0
1:55 am 01:55 Clear 46 7.5 38 3.5 76 76 N 3 6 30.06 1018 10 16.0934 0 0
2:15 am 02:15 Clear 45 7 38 3.3 78 78 N 5 7 30.09 1019 10 16.0934 0 0
2:35 am 02:35 Clear 44 6.5 37 2.8 77 77 Calm 30.09 1019 10 16.0934 0 0
2:55 am 02:55 Clear 43 6.1 37 2.8 80 80 N 5 7 30.09 1019 10 16.0934 0 0
3:15 am 03:15 Clear 41 4.8 37 2.5 85 85 NNE 3 6 30.09 1019 10 16.0934 0 0
3:35 am 03:35 Clear 44 6.7 38 3.1 78 78 N 3 6 30.09 1019 10 16.0934 0 0
3:55 am 03:55 Clear 43 6.2 37 2.8 79 79 NNE 5 7 30.09 1019 10 16.0934 0 0
4:15 am 04:15 Clear 46 7.5 38 3.5 76 76 NNE 5 7 30.06 1018 10 16.0934 0 0
4:35 am 04:35 Clear 44 6.5 37 3 79 79 Calm 30.09 1019 10 16.0934 0 0
4:55 am 04:55 Clear 45 7 38 3.1 76 76 Calm 30.09 1019 10 16.0934 0 0
5:15 am 05:15 Clear 42 5.3 36 2.4 82 82 N 3 6 30.09 1019 10 16.0934 0 0
5:35 am 05:35 Clear 43 6.2 37 2.6 78 78 NNE 3 6 30.09 1019 10 16.0934 0 0
5:55 am 05:55 Clear 43 6.3 37 2.6 77 77 NNE 5 7 30.12 1020 10 16.0934 0 0
6:15 am 06:15 Clear 41 5.1 36 2.2 82 82 NNE 3 6 30.12 1020 10 16.0934 0 0
6:35 am 06:35 Clear 41 4.9 35 1.9 81 81 NNE 5 7 30.12 1020 10 16.0934 0 0
6:55 am 06:55 Clear 43 6 36 2.3 77 77 NNE 6 9 30.12 1020 10 16.0934 0 0
7:15 am 07:15 Clear 43 6 36 2 76 76 N 5 7 30.12 1020 10 16.0934 0 0
7:35 am 07:35 Clear 40 4.7 34 1.3 79 79 N 6 9 30.15 1021 10 16.0934 0 0
7:55 am 07:55 Clear 40 4.3 34 1 79 79 N 6 9 30.18 1022 10 16.0934 0 0
8:15 am 08:15 Sunny 39 4.1 35 1.5 83 83 N 7 11 30.18 1022 10 16.0934 0 0
8:35 am 08:35 Sunny 40 4.6 35 1.8 82 82 N 5 7 30.15 1021 10 16.0934 0 0
8:55 am 08:55 Sunny 43 6.2 37 2.8 79 79 NNE 6 9 30.15 1021 10 16.0934 0 0
9:15 am 09:15 Sunny 46 7.6 38 3.3 74 74 NNE 6 9 30.18 1022 10 16.0934 0 0
9:35 am 09:35 Sunny 49 9.2 38 3.5 68 68 NE 7 11 30.15 1021 10 16.0934 0 0
9:55 am 09:55 Sunny 51 10.5 38 3.5 62 62 NE 12 19 30.15 1021 10 16.0934 0 0
10:15 am 10:15 Sunny 53 11.6 39 3.9 59 59 NE 10 17 30.12 1020 10 16.0934 0 0
10:35 am 10:35 Sunny 54 12.3 39 3.9 57 57 NE 10 17 30.12 1020 10 16.0934 0 0
10:55 am 10:55 Sunny 56 13.2 39 3.9 54 54 ENE 10 17 30.15 1021 10 16.0934 0 0
11:15 am 11:15 Sunny 58 14.3 40 4.2 51 51 ENE 12 19 30.15 1021 10 16.0934 0 0
11:35 am 11:35 Sunny 59 15.1 39 4 48 48 ENE 14 22 30.12 1020 10 16.0934 0 0
11:55 am 11:55 Sunny 61 16 38 3.6 44 44 ENE 13 20 30.12 1020 10 16.0934 0 0
12:15 pm 12:15 Sunny 62 16.8 37 2.8 39 39 E 14 22 30.12 1020 10 16.0934 0 0
12:35 pm 12:35 Sunny 63 17.3 37 2.5 37 37 E 9 15 30.12 1020 10 16.0934 0 0
12:55 pm 12:55 Sunny 64 17.7 33 0.8 32 32 E 13 20 30.12 1020 10 16.0934 0 0
1:15 pm 13:15 Sunny 65 18.3 34 1.2 32 32 ENE 12 19 30.09 1019 10 16.0934 0 0
1:35 pm 13:35 Sunny 65 18.6 33 0.4 30 30 ENE 13 20 30.09 1019 10 16.0934 0 0
1:55 pm 13:55 Sunny 66 18.9 33 0.3 29 29 E 13 20 30.06 1018 10 16.0934 0 0
2:15 pm 14:15 Sunny 67 19.3 32 -0.1 27 27 ENE 14 22 30.09 1019 10 16.0934 0 0
2:35 pm 14:35 Sunny 67 19.7 31 -0.6 26 26 ENE 12 19 30.06 1018 10 16.0934 0 0
2:55 pm 14:55 Sunny 68 19.8 30 -1.1 25 25 ENE 13 20 30.06 1018 10 16.0934 0 0
3:15 pm 15:15 Sunny 68 19.8 30 -1 25 25 ENE 10 17 30.06 1018 10 16.0934 0 0
3:35 pm 15:35 Sunny 68 20.1 31 -0.8 25 25 ENE 13 20 30.06 1018 10 16.0934 0 0
3:55 pm 15:55 Sunny 69 20.3 32 -0.2 25 25 E 10 17 30.06 1018 10 16.0934 0 0
4:15 pm 16:15 Sunny 68 20 31 -0.4 26 26 ENE 13 20 30.06 1018 10 16.0934 0 0
4:35 pm 16:35 Sunny 67 19.6 31 -0.4 26 26 E 9 15 30.09 1019 10 16.0934 0 0
4:55 pm 16:55 Sunny 67 19.5 31 -0.8 26 26 E 12 19 30.09 1019 10 16.0934 0 0
5:15 pm 17:15 Sunny 67 19.2 31 -0.8 26 26 ENE 13 20 30.09 1019 10 16.0934 0 0
5:35 pm 17:35 Sunny 66 19 30 -1.3 25 25 E 12 19 30.09 1019 10 16.0934 0 0
5:55 pm 17:55 Sunny 65 18.1 31 -0.4 29 29 E 8 13 30.09 1019 10 16.0934 0 0
6:15 pm 18:15 Sunny 62 16.7 32 0.1 33 33 ENE 7 11 30.12 1020 10 16.0934 0 0
6:35 pm 18:35 Sunny 58 14.5 33 0.5 39 39 E 7 11 30.15 1021 10 16.0934 0 0
6:55 pm 18:55 Clear 57 13.8 32 0 39 39 E 5 7 30.18 1022 7 11.26538 0 0
7:15 pm 19:15 Clear 56 13.5 32 -0.2 39 39 E 6 9 30.18 1022 10 16.0934 0 0
7:35 pm 19:35 Clear 54 12.3 31 -0.5 42 42 ENE 6 9 30.18 1022 7 11.26538 0 0
7:55 pm 19:55 Clear 52 11.2 32 0 46 46 ENE 5 7 30.21 1023 7 11.26538 0 0
8:15 pm 20:15 Clear 51 10.3 32 -0.1 49 49 ENE 6 9 30.21 1023 10 16.0934 0 0
8:35 pm 20:35 Clear 50 9.9 31 -0.4 49 49 ENE 5 7 30.24 1024 10 16.0934 0 0
8:55 pm 20:55 Clear 47 8.1 31 -0.4 55 55 NE 6 9 30.27 1025 10 16.0934 0 0
9:15 pm 21:15 Clear 46 7.7 31 -0.6 56 56 NE 6 9 30.27 1025 10 16.0934 0 0
9:35 pm 21:35 Clear 47 8.3 30 -1.2 52 52 ENE 5 7 30.27 1025 10 16.0934 0 0
9:55 pm 21:55 Clear 46 8 29 -1.5 51 51 ENE 5 7 30.27 1025 10 16.0934 0 0
10:15 pm 22:15 Clear 45 7.3 29 -1.5 54 54 NE 3 6 30.27 1025 10 16.0934 0 0
10:35 pm 22:35 Clear 43 5.9 30 -1.1 61 61 Calm 30.33 1027 10 16.0934 0 0
10:55 pm 22:55 Clear 42 5.7 31 -0.5 65 65 Calm 30.33 1027 10 16.0934 0 0
11:15 pm 23:15 Clear 41 5 30 -1 66 66 NE 3 6 30.33 1027 10 16.0934 0 0
11:35 pm 23:35 Clear 41 4.8 31 -0.5 69 69 Calm 30.33 1027 10 16.0934 0 0
11:55 pm 23:55 Clear 40 4.6 31 -0.8 68 68 Calm 30.33 1027 10 16.0934 0 0

Powered by AerisWeather